Location: Helsinki
(60.1699°N, 24.9384°E)
Time: 22:47:03
(UTC+02:00)

A-11 Canister half - Pass Details

Date: 28 October 2020
Orbit: 1516 x 1684 km, 47.2° (Epoch: 26 November)

Event Time Altitude Azimuth Distance (km) Brightness Sun altitude
Rises 20:38:11 0° 212° (SSW) 4,926 11.7 -30.2°
Reaches altitude 10° 20:41:59 10° 201° (SSW) 3,930 11.0 -30.6°
Enters shadow 20:45:13 19° 186° (S) 3,234 10.4 -31.0°
Maximum altitude 20:49:51 27° 149° (SSE) 2,777 - -31.5°
Drops below altitude 10° 20:57:34 10° 97° (E) 3,855 - -32.3°
Sets 21:01:14 0° 87° (E) 4,817 - -32.7°
